This is the latest recevied weather packets stored in our database for station/object OE9GTV. If no packets are shown the sender has not sent any weather packets the latest 10 day(s).
| Time | Temp. | Humidity | Pressure | Rain* | Wind** | Luminosity | Snow |
|---|---|---|---|---|---|---|---|
| 1777978275 | 16.67° C | 71% | 1005.3 hPa | 0 mm | - | 0 W/m² | - |
| 1777977674 | 16.11° C | 72% | 1005.5 hPa | 0 mm | - | 0 W/m² | - |
| 1777977074 | 16.11° C | 72% | 1005.6 hPa | 0 mm | - | 0 W/m² | - |
| 1777976474 | 15.56° C | 73% | 1005.5 hPa | 0 mm | - | 0 W/m² | - |
| 1777975874 | 15.56° C | 74% | 1005.7 hPa | 0 mm | - | 0 W/m² | - |
| 1777975274 | 15° C | 75% | 1005.7 hPa | 0 mm | - | 0 W/m² | - |
| 1777974674 | 15° C | 76% | 1005.7 hPa | 0 mm | - | 0 W/m² | - |
| 1777974074 | 15° C | 76% | 1005.7 hPa | 0 mm | - | 0 W/m² | - |
| 1777973474 | 14.44° C | 77% | 1005.8 hPa | 0 mm | - | 0 W/m² | - |
| 1777972874 | 14.44° C | 77% | 1005.9 hPa | 0 mm | - | 0 W/m² | - |
| 1777972274 | 14.44° C | 78% | 1005.9 hPa | 0 mm | - | 0 W/m² | - |
| 1777971674 | 14.44° C | 78% | 1005.9 hPa | 0 mm | - | 0 W/m² | - |
| 1777971074 | 14.44° C | 78% | 1005.9 hPa | 0 mm | - | 0 W/m² | - |
| 1777970474 | 13.89° C | 78% | 1006 hPa | 0 mm | - | 0 W/m² | - |
| 1777969873 | 13.89° C | 78% | 1006.1 hPa | 0 mm | - | 0 W/m² | - |
| 1777969273 | 13.89° C | 79% | 1006.1 hPa | 0 mm | - | 0 W/m² | - |
| 1777968674 | 13.89° C | 79% | 1006.3 hPa | 0 mm | - | 0 W/m² | - |
| 1777968074 | 13.33° C | 80% | 1006.3 hPa | 0 mm | - | 0 W/m² | - |
| 1777967474 | 13.33° C | 80% | 1006.3 hPa | 0 mm | - | 0 W/m² | - |
| 1777966873 | 13.33° C | 81% | 1006.4 hPa | 0 mm | - | 0 W/m² | - |
| 1777966273 | 13.33° C | 81% | 1006.5 hPa | 0 mm | - | 0 W/m² | - |
| 1777965674 | 12.78° C | 82% | 1006.6 hPa | 0 mm | - | 0 W/m² | - |
| 1777965073 | 12.78° C | 82% | 1006.6 hPa | 0 mm | - | 0 W/m² | - |
| 1777964473 | 12.22° C | 83% | 1006.7 hPa | 0 mm | - | 0 W/m² | - |
| 1777963873 | 11.67° C | 83% | 1006.8 hPa | 0 mm | - | 0 W/m² | - |
* Rain latest hour (hover to see other rain measurements)
** Current wind speed in m/s (hover to see current wind gust speed)